When you browse on this site, cookies collect data to enhance your experience and personalize the content and advertising you see.
Visit our Privacy Policy to learn more. By continuing to use the site, you agree to this use of cookies and data.

Meteo pe oră la Berat

Astăzi, 4 Iulie, Sâmbătă

Timp Temperatura Precipitaţii Vânt Presiune Umiditate
00:00 +25°C° 0 mm 1 m/s 741 mmHg 72%
01:00 +25°C° 0 mm 1 m/s 742 mmHg 73%
02:00 +25°C° 0 mm 1 m/s 741 mmHg 72%
03:00 +24°C° 0 mm 1 m/s 741 mmHg 72%
04:00 +24°C° 0 mm 1 m/s 741 mmHg 71%
05:00 +26°C° 0 mm 1 m/s 741 mmHg 66%
06:00 +28°C° 0 mm 1 m/s 742 mmHg 61%
07:00 +29°C° 0 mm 1 m/s 742 mmHg 55%
08:00 +31°C° 0 mm 1 m/s 742 mmHg 49%
09:00 +33°C° 0 mm 1 m/s 742 mmHg 43%
10:00 +35°C° 0 mm 1 m/s 742 mmHg 37%
11:00 +36°C° 0 mm 2 m/s 742 mmHg 37%
12:00 +36°C° 0 mm 3 m/s 742 mmHg 38%
13:00 +36°C° 0 mm 3 m/s 742 mmHg 38%
14:00 +35°C° 0 mm 3 m/s 741 mmHg 42%
15:00 +34°C° 0 mm 3 m/s 741 mmHg 45%
16:00 +34°C° 0 mm 3 m/s 741 mmHg 49%
17:00 +31°C° 0.3 mm 2 m/s 741 mmHg 56%
18:00 +29°C° 0.3 mm 2 m/s 741 mmHg 64%
19:00 +27°C° 0.3 mm 2 m/s 741 mmHg 72%
20:00 +26°C° 0.8 mm 1 m/s 741 mmHg 75%
21:00 +25°C° 0.8 mm 1 m/s 741 mmHg 78%
22:00 +24°C° 0.8 mm 1 m/s 741 mmHg 82%
23:00 +24°C° 0.1 mm 1 m/s 741 mmHg 81%

Mâine, 5 Iulie, Duminică

Timp Temperatura Precipitaţii Vânt Presiune Umiditate
00:00 +24°C° 0.1 mm 1 m/s 741 mmHg 81%
01:00 +23°C° 0.1 mm 1 m/s 741 mmHg 80%
02:00 +23°C° 0 mm 1 m/s 741 mmHg 79%
03:00 +23°C° 0 mm 1 m/s 741 mmHg 78%
04:00 +22°C° 0 mm 1 m/s 740 mmHg 78%
05:00 +24°C° 0 mm 1 m/s 740 mmHg 72%
06:00 +26°C° 0 mm 1 m/s 740 mmHg 67%
07:00 +27°C° 0 mm 1 m/s 741 mmHg 62%
08:00 +29°C° 0 mm 1 m/s 741 mmHg 56%
09:00 +31°C° 0 mm 2 m/s 741 mmHg 49%
10:00 +32°C° 0 mm 2 m/s 741 mmHg 43%
11:00 +34°C° 0 mm 2 m/s 740 mmHg 42%
12:00 +34°C° 0 mm 2 m/s 740 mmHg 41%
13:00 +35°C° 0 mm 3 m/s 740 mmHg 40%
14:00 +34°C° 0.2 mm 3 m/s 740 mmHg 44%
15:00 +32°C° 0.2 mm 2 m/s 739 mmHg 48%
16:00 +31°C° 0.2 mm 2 m/s 739 mmHg 52%
17:00 +30°C° 0.2 mm 2 m/s 739 mmHg 57%
18:00 +28°C° 0.2 mm 2 m/s 739 mmHg 63%
19:00 +27°C° 0.2 mm 1 m/s 740 mmHg 69%
20:00 +26°C° 0.1 mm 2 m/s 740 mmHg 70%
21:00 +26°C° 0.1 mm 2 m/s 740 mmHg 71%
22:00 +25°C° 0.1 mm 3 m/s 740 mmHg 72%
23:00 +25°C° 0.2 mm 3 m/s 740 mmHg 73%

Poimâine, 6 Iulie, Luni

Timp Temperatura Precipitaţii Vânt Presiune Umiditate
00:00 +24°C° 0.2 mm 2 m/s 740 mmHg 75%
01:00 +24°C° 0.2 mm 2 m/s 739 mmHg 76%
02:00 +24°C° 0 mm 2 m/s 739 mmHg 75%
03:00 +24°C° 0 mm 2 m/s 739 mmHg 75%
04:00 +23°C° 0 mm 2 m/s 738 mmHg 74%
05:00 +25°C° 0 mm 2 m/s 738 mmHg 71%
06:00 +26°C° 0 mm 2 m/s 738 mmHg 68%
07:00 +27°C° 0 mm 2 m/s 739 mmHg 64%
08:00 +28°C° 0 mm 2 m/s 739 mmHg 58%
09:00 +30°C° 0 mm 2 m/s 738 mmHg 51%
10:00 +31°C° 0 mm 2 m/s 738 mmHg 44%
11:00 +32°C° 0 mm 2 m/s 738 mmHg 42%
12:00 +34°C° 0 mm 2 m/s 738 mmHg 40%
13:00 +35°C° 0 mm 3 m/s 738 mmHg 38%
14:00 +34°C° 0.1 mm 3 m/s 737 mmHg 41%
15:00 +32°C° 0.1 mm 2 m/s 737 mmHg 44%
16:00 +31°C° 0.1 mm 2 m/s 737 mmHg 47%
17:00 +30°C° 0.2 mm 2 m/s 737 mmHg 54%
18:00 +28°C° 0.2 mm 2 m/s 737 mmHg 61%
19:00 +27°C° 0.2 mm 1 m/s 737 mmHg 68%
20:00 +26°C° 0.1 mm 1 m/s 737 mmHg 70%
21:00 +25°C° 0.1 mm 1 m/s 737 mmHg 72%
22:00 +24°C° 0.1 mm 1 m/s 738 mmHg 73%
23:00 +24°C° 0 mm 1 m/s 737 mmHg 73%

7 Iulie, Marţi

Timp Temperatura Precipitaţii Vânt Presiune Umiditate
00:00 +24°C° 0 mm 1 m/s 737 mmHg 72%
01:00 +24°C° 0 mm 1 m/s 737 mmHg 71%
02:00 +24°C° 0 mm 1 m/s 737 mmHg 70%
03:00 +24°C° 0 mm 1 m/s 737 mmHg 69%
04:00 +24°C° 0 mm 1 m/s 737 mmHg 68%
05:00 +25°C° 0 mm 1 m/s 737 mmHg 65%
06:00 +27°C° 0 mm 1 m/s 737 mmHg 61%
07:00 +28°C° 0 mm 1 m/s 737 mmHg 57%
08:00 +30°C° 0 mm 1 m/s 738 mmHg 53%
09:00 +31°C° 0 mm 1 m/s 738 mmHg 48%
10:00 +34°C° 0 mm 2 m/s 738 mmHg 43%
11:00 +35°C° 0 mm 2 m/s 738 mmHg 41%
12:00 +35°C° 0 mm 2 m/s 738 mmHg 39%
13:00 +36°C° 0 mm 2 m/s 738 mmHg 37%
14:00 +36°C° 0 mm 2 m/s 738 mmHg 39%
15:00 +35°C° 0 mm 3 m/s 738 mmHg 42%
16:00 +35°C° 0 mm 3 m/s 738 mmHg 44%
17:00 +32°C° 0 mm 2 m/s 739 mmHg 51%
18:00 +30°C° 0 mm 2 m/s 739 mmHg 59%
19:00 +28°C° 0 mm 1 m/s 739 mmHg 66%
20:00 +28°C° 0 mm 1 m/s 740 mmHg 68%
21:00 +27°C° 0 mm 1 m/s 740 mmHg 70%
22:00 +26°C° 0 mm 1 m/s 740 mmHg 72%
23:00 +26°C° 0 mm 1 m/s 741 mmHg 72%

8 Iulie, Miercuri

Timp Temperatura Precipitaţii Vânt Presiune Umiditate
00:00 +25°C° 0 mm 1 m/s 741 mmHg 72%
01:00 +25°C° 0 mm 1 m/s 741 mmHg 72%
02:00 +25°C° 0 mm 1 m/s 741 mmHg 73%
03:00 +24°C° 0 mm 1 m/s 741 mmHg 74%
04:00 +24°C° 0 mm 1 m/s 741 mmHg 75%
05:00 +25°C° 0 mm 1 m/s 742 mmHg 71%
06:00 +27°C° 0 mm 1 m/s 742 mmHg 66%
07:00 +28°C° 0 mm 1 m/s 743 mmHg 62%
08:00 +30°C° 0 mm 1 m/s 743 mmHg 57%
09:00 +31°C° 0 mm 2 m/s 743 mmHg 52%
10:00 +34°C° 0 mm 2 m/s 743 mmHg 46%
11:00 +35°C° 0 mm 2 m/s 743 mmHg 45%
12:00 +35°C° 0 mm 3 m/s 743 mmHg 44%
13:00 +36°C° 0 mm 3 m/s 743 mmHg 43%
14:00 +35°C° 0.1 mm 3 m/s 743 mmHg 45%
15:00 +34°C° 0.1 mm 4 m/s 743 mmHg 48%
16:00 +34°C° 0.1 mm 4 m/s 742 mmHg 50%
17:00 +31°C° 0 mm 3 m/s 743 mmHg 58%
18:00 +29°C° 0 mm 2 m/s 743 mmHg 66%
19:00 +27°C° 0 mm 1 m/s 743 mmHg 74%
20:00 +26°C° 0 mm 1 m/s 743 mmHg 77%
21:00 +25°C° 0 mm 1 m/s 744 mmHg 79%
22:00 +25°C° 0 mm 1 m/s 744 mmHg 82%
23:00 +24°C° 0 mm 1 m/s 744 mmHg 82%

9 Iulie, Joi

Timp Temperatura Precipitaţii Vânt Presiune Umiditate
00:00 +24°C° 0 mm 1 m/s 744 mmHg 82%
01:00 +24°C° 0 mm 1 m/s 744 mmHg 81%
02:00 +24°C° 0 mm 1 m/s 744 mmHg 80%
03:00 +24°C° 0 mm 1 m/s 744 mmHg 79%
04:00 +23°C° 0 mm 2 m/s 744 mmHg 78%
05:00 +25°C° 0 mm 2 m/s 744 mmHg 72%
06:00 +27°C° 0 mm 2 m/s 744 mmHg 67%
07:00 +28°C° 0 mm 2 m/s 744 mmHg 61%
08:00 +30°C° 0 mm 1 m/s 745 mmHg 57%
09:00 +31°C° 0 mm 1 m/s 745 mmHg 53%
10:00 +33°C° 0 mm 1 m/s 745 mmHg 48%
11:00 +34°C° 0.1 mm 2 m/s 745 mmHg 48%
12:00 +35°C° 0.1 mm 3 m/s 744 mmHg 47%
13:00 +35°C° 0.1 mm 3 m/s 744 mmHg 47%
14:00 +34°C° 0.4 mm 3 m/s 744 mmHg 51%
15:00 +33°C° 0.4 mm 3 m/s 744 mmHg 54%
16:00 +31°C° 0.4 mm 2 m/s 743 mmHg 58%
17:00 +30°C° 0.1 mm 2 m/s 743 mmHg 63%
18:00 +28°C° 0.1 mm 1 m/s 743 mmHg 67%
19:00 +27°C° 0.1 mm 1 m/s 743 mmHg 72%
20:00 +27°C° 0 mm 1 m/s 743 mmHg 74%
21:00 +26°C° 0 mm 1 m/s 744 mmHg 76%
22:00 +25°C° 0 mm 1 m/s 744 mmHg 78%
23:00 +25°C° 0 mm 1 m/s 744 mmHg 79%
Arată mai mult